Terug naar catalogus

STARLINK-36197

ActiefCommunicatieVLEO
NORAD 67205·PAYLOAD·🇺🇸 United States

Gelanceerd Dec 17, 2025 vanaf Vandenberg Space Force Base

Loading…

Volgende Passages (komende 24 uur)

TLE

VersSource: CelesTrak SupGP

Epoch: Sep 15, 2026, 02:56 UTC

1 67205C 25304P   26258.12270833 -.00043300  00000+0 -36290-2 0  2584
2 67205  70.0011  56.6772 0002814 267.9794  89.8043 14.98349635    18

Volg STARLINK-36197 in realtime met AllMySat

Download on the App Store